DW5450 Weather Reports


time (UTC)temp
F
wind
direction
speed
knots
gust
knots
rain 1hr
in
rain 24hr
in
rain mn
in
humidity
%
barometer
mb
20260507094555 71 144 0.0 1.7 0.00 0.00 0.00 87 1010.5
20260507093049 71 144 0.0 0.0 0.00 0.00 0.00 87 1010.4
20260507091548 71 144 0.0 0.0 0.00 0.00 0.00 87 1010.6
20260507090047 71 144 0.0 0.0 0.00 0.00 0.00 87 1010.8
20260507084545 71 144 0.0 0.0 0.00 0.00 0.00 87 1010.9
20260507083045 70 144 0.0 0.9 0.00 0.00 0.00 87 1011.0
20260507081547 71 143 0.0 0.0 0.00 0.00 0.00 87 1011.0
20260507080041 71 143 0.0 0.9 0.00 0.00 0.00 87 1011.2
20260507074540 71 143 0.0 0.0 0.00 0.00 0.00 87 1011.4
20260507073038 71 143 0.0 0.0 0.00 0.00 0.00 86 1011.5
20260507071538 71 143 0.0 0.0 0.00 0.00 0.00 86 1011.7
20260507070040 71 143 0.0 0.0 0.00 0.00 0.00 86 1011.9
20260507064542 72 143 0.0 0.0 0.00 0.00 0.00 86 1012.0
20260507063042 72 143 0.0 0.0 0.00 0.00 0.00 86 1012.1
20260507061537 72 143 0.0 0.0 0.00 0.00 0.00 85 1012.2
20260507060038 73 143 0.0 0.0 0.00 0.00 0.00 85 1012.3
20260507054532 73 143 0.0 0.0 0.00 0.00 0.00 85 1012.3
20260507053036 73 143 0.0 0.0 0.00 0.00 0.00 85 1012.4
20260507051532 74 143 0.0 0.0 0.00 0.00 0.00 84 1012.5
20260507050035 74 143 0.0 0.0 0.00 0.00 0.00 84 1012.6
20260507044532 74 143 0.0 0.9 0.00 0.00 0.00 84 1012.5
20260507043032 75 143 0.0 0.0 0.00 0.00 0.00 83 1012.4
20260507041541 75 143 0.0 0.0 0.00 0.00 0.00 83 1012.3
20260507040032 75 143 0.0 0.9 0.00 0.00 0.00 82 1012.4
20260507034537 76 143 0.9 2.6 0.00 0.00 0.00 82 1012.4
20260507033029 76 144 0.0 1.7 0.00 0.00 0.00 82 1012.4
20260507031528 76 143 0.0 2.6 0.00 0.00 0.00 81 1012.2
20260507030028 76 154 0.0 3.5 0.00 0.00 0.00 81 1012.1
20260507024530 76 149 0.9 3.5 0.00 0.00 0.00 80 1012.0
20260507023026 77 119 0.0 2.6 0.00 0.00 0.00 80 1011.9
20260507021526 77 168 0.0 2.6 0.00 0.00 0.00 79 1011.9
20260507020030 77 169 0.9 4.3 0.00 0.00 0.00 79 1011.9
20260507014526 77 148 0.9 4.3 0.00 0.00 0.00 79 1011.9
20260507013025 78 165 1.7 6.1 0.00 0.00 0.00 78 1011.9
20260507011526 78 140 0.9 5.2 0.00 0.00 0.00 77 1011.8
20260507010032 78 165 1.7 5.2 0.00 0.00 0.00 77 1011.7
20260507004523 78 144 1.7 5.2 0.00 0.00 0.00 77 1011.7
20260507003023 79 107 1.7 7.0 0.00 0.00 0.00 76 1011.6
20260507001529 80 186 3.5 6.1 0.00 0.00 0.00 75 1011.6
20260507000027 80 150 3.5 7.8 0.00 0.00 0.00 75 1011.5
20260506234541 80 184 1.7 7.0 0.00 0.00 0.00 75 1011.5
20260506233022 81 141 4.3 8.7 0.00 0.00 0.00 75 1011.6
20260506231521 80 147 1.7 6.1 0.00 0.00 0.00 76 1011.5
20260506230020 81 171 2.6 7.0 0.00 0.00 0.00 75 1011.7
20260506224526 81 143 1.7 7.8 0.00 0.00 0.00 75 1011.6
20260506223021 82 123 2.6 10.4 0.00 0.00 0.00 75 1011.7
20260506221519 82 113 3.5 8.7 0.00 0.00 0.00 74 1011.7
20260506220031 82 153 3.5 12.2 0.00 0.00 0.00 74 1011.9
20260506214518 83 109 3.5 10.4 0.00 0.00 0.00 75 1012.0
20260506213017 82 151 5.2 9.6 0.00 0.00 0.00 75 1012.0
20260506211520 82 180 4.3 11.3 0.00 0.00 0.00 75 1012.2
20260506210017 82 170 5.2 9.6 0.00 0.00 0.00 75 1012.3
20260506204516 82 118 5.2 9.6 0.00 0.00 0.00 75 1012.4
20260506203016 82 214 4.3 9.6 0.00 0.00 0.00 75 1012.5
20260506201516 82 161 3.5 9.6 0.00 0.00 0.00 75 1012.7
20260506200014 82 111 3.5 10.4 0.00 0.00 0.00 75 1012.9
20260506194514 82 160 4.3 11.3 0.00 0.00 0.00 75 1013.1
20260506193012 82 166 3.5 10.4 0.00 0.00 0.00 74 1013.1
20260506191512 83 119 4.3 8.7 0.00 0.00 0.00 74 1013.2
20260506190012 83 117 5.2 12.2 0.00 0.00 0.00 72 1013.2
20260506184511 83 125 5.2 10.4 0.00 0.00 0.00 71 1013.4
20260506183010 83 174 3.5 9.6 0.00 0.00 0.00 71 1013.4
20260506181510 84 155 3.5 10.4 0.00 0.00 0.00 70 1013.5
20260506180009 83 161 3.5 9.6 0.00 0.00 0.00 70 1013.5
20260506174507 83 143 2.6 8.7 0.00 0.00 0.00 70 1013.4
20260506173007 83 141 3.5 7.8 0.00 0.00 0.00 67 1013.3
20260506171507 85 132 3.5 7.8 0.00 0.00 0.00 65 1013.3
20260506170006 85 213 2.6 9.6 0.00 0.00 0.00 64 1013.3
20260506164508 86 148 3.5 6.1 0.00 0.00 0.00 59 1013.3
20260506163001 85 291 0.0 4.3 0.00 0.00 0.00 59 1013.3
20260506161600 84 42 1.7 4.3 0.00 0.00 0.00 62 1013.1
20260506160108 83 68 0.9 8.7 0.00 0.00 0.00 67 1013.2
20260506154550 81 296 0.9 4.3 0.00 0.00 0.00 70 1013.1
20260506153046 80 45 1.7 5.2 0.00 0.00 0.00 71 1013.0
20260506151545 79 28 1.7 6.1 0.00 0.00 0.00 76 1013.0
20260506150039 78 22 1.7 4.3 0.00 0.00 0.00 79 1013.0
20260506144534 75 20 0.9 4.3 0.00 0.00 0.00 83 1013.0
20260506143034 72 328 0.0 2.6 0.00 0.00 0.00 85 1012.9
20260506141527 70 344 0.9 2.6 0.00 0.00 0.00 87 1012.8
20260506140022 68 334 0.0 2.6 0.00 0.00 0.00 88 1012.8
20260506134524 66 321 0.0 1.7 0.00 0.00 0.00 88 1012.7
20260506133022 65 321 0.0 1.7 0.00 0.00 0.00 88 1012.6
20260506131538 65 321 0.0 0.9 0.00 0.00 0.00 88 1012.4
20260506130033 65 321 0.0 2.6 0.00 0.00 0.00 88 1012.5
20260506124517 66 321 0.0 2.6 0.00 0.00 0.00 88 1012.4
20260506123015 65 315 0.9 2.6 0.00 0.00 0.00 88 1012.3
20260506121512 66 311 0.9 4.3 0.00 0.00 0.00 88 1011.9
20260506120016 66 306 1.7 3.5 0.00 0.00 0.00 88 1011.6
20260506114509 66 304 0.9 3.5 0.00 0.00 0.00 88 1011.5
20260506113009 66 309 0.0 4.3 0.00 0.00 0.00 88 1011.5
20260506111508 66 313 1.7 5.2 0.00 0.00 0.00 88 1011.2
20260506110007 66 9 0.0 1.7 0.00 0.00 0.00 88 1011.1
20260506104507 66 9 0.0 1.7 0.00 0.00 0.00 88 1011.0
20260506103006 66 9 0.9 2.6 0.00 0.00 0.00 88 1011.0
20260506101506 66 57 0.0 1.7 0.00 0.00 0.00 88 1010.9
20260506100004 66 59 0.0 1.7 0.00 0.00 0.00 88 1011.0